Total_Precipitation_Accumulation
2.49 2.64 2.44 2.20 2.17 2.11 2.44 2.90 3.22 2.94 2.51 2.23 2.05 2.04 2.14 2.26 2.48 2.28 2.31 2.33 2.11 1.89 1.69 1.63 1.59 1.55 1.54 1.58 1.67 1.71 1.72 1.83 2.04 2.27 2.50 2.78 3.06 3.36
2.62 2.69 2.55 2.31 2.39 2.22 2.27 2.62 2.93 3.12 2.78 2.07 2.06 1.99 2.10 2.03 2.38 2.20 2.34 2.35 2.03 1.84 1.64 1.55 1.49 1.44 1.43 1.44 1.48 1.53 1.57 1.57 1.62 1.74 1.89 2.03 2.13 2.29
2.62 2.59 2.55 2.58 2.59 2.43 2.51 2.62 2.69 3.00 2.98 2.35 2.18 2.27 2.37 2.35 2.39 2.27 2.16 2.15 1.99 1.93 1.68 1.52 1.42 1.36 1.35 1.32 1.34 1.32 1.35 1.40 1.41 1.44 1.53 1.59 1.63 1.66
2.90 3.03 2.78 2.78 2.79 2.62 2.63 2.63 2.69 2.93 2.96 2.75 2.53 2.48 2.54 2.47 2.48 2.29 1.94 1.85 1.94 2.10 1.89 1.64 1.49 1.38 1.31 1.27 1.25 1.23 1.25 1.30 1.33 1.32 1.33 1.37 1.44 1.46
2.73 2.98 2.96 3.10 2.86 2.88 2.81 2.70 2.71 2.73 2.91 2.75 2.54 2.68 2.69 2.63 2.55 2.17 1.99 2.07 1.90 2.15 2.07 1.75 1.56 1.44 1.32 1.21 1.14 1.12 1.12 1.15 1.22 1.28 1.29 1.26 1.26 1.28
2.46 2.59 2.70 2.98 2.95 3.00 2.84 2.86 2.99 3.06 3.16 2.99 2.81 2.88 2.99 2.98 2.83 2.46 2.29 2.19 2.07 1.90 2.04 1.84 1.70 1.59 1.44 1.28 1.18 1.10 1.10 1.11 1.14 1.18 1.23 1.26 1.25 1.22
2.44 2.40 2.37 2.61 2.69 2.75 2.51 2.68 2.97 3.04 3.11 3.03 2.92 2.93 2.93 3.09 2.80 2.61 2.45 2.42 2.30 2.03 1.98 1.74 1.65 1.52 1.48 1.47 1.36 1.24 1.15 1.14 1.17 1.18 1.17 1.17 1.20 1.26
2.69 2.61 2.47 2.42 2.41 2.44 2.48 2.55 2.70 2.72 2.78 2.86 2.77 2.76 2.82 2.97 3.14 3.01 2.79 2.58 2.32 2.03 2.05 1.80 1.68 1.61 1.47 1.33 1.45 1.41 1.27 1.20 1.16 1.18 1.21 1.22 1.23 1.25
2.64 2.62 2.34 2.20 2.42 2.31 2.48 2.49 2.31 2.24 2.26 2.40 2.40 2.40 2.85 3.16 3.48 3.15 2.96 2.77 2.48 2.30 2.23 1.87 1.72 1.65 1.48 1.42 1.57 1.41 1.27 1.19 1.15 1.17 1.23 1.25 1.26 1.27
2.27 2.39 2.33 2.23 2.27 2.37 2.29 2.06 1.85 1.85 1.90 1.82 1.85 2.09 2.53 3.11 3.42 3.37 3.35 3.08 2.73 2.33 2.16 1.87 1.66 1.59 1.47 1.50 1.69 1.59 1.41 1.26 1.17 1.14 1.12 1.15 1.19 1.24
2.01 2.01 2.04 1.92 2.07 2.17 2.06 1.84 1.69 1.63 1.69 1.71 1.69 1.89 2.15 2.50 2.93 3.14 3.02 2.83 2.43 2.03 1.90 1.78 1.64 1.68 1.61 1.51 1.52 1.67 1.55 1.39 1.30 1.23 1.19 1.18 1.19 1.24
2.11 2.07 2.13 1.90 1.83 1.78 1.70 1.71 1.53 1.44 1.57 1.55 1.51 1.55 1.66 1.97 2.44 2.53 2.54 2.63 2.35 2.02 1.75 1.79 1.69 1.89 1.83 1.55 1.42 1.44 1.45 1.50 1.48 1.39 1.31 1.30 1.31 1.15
1.88 1.76 1.79 1.81 1.60 1.45 1.43 1.39 1.33 1.40 1.48 1.47 1.39 1.38 1.51 1.69 1.88 2.13 2.35 2.38 2.25 1.88 1.69 1.89 1.79 1.86 1.91 1.64 1.45 1.41 1.39 1.37 1.40 1.44 1.46 1.46 1.44 1.30
1.83 1.82 1.86 1.88 1.63 1.48 1.32 1.20 1.26 1.27 1.27 1.37 1.33 1.26 1.31 1.43 1.69 1.98 2.25 2.34 2.28 2.13 2.10 2.14 2.02 1.96 1.97 1.81 1.58 1.43 1.42 1.44 1.43 1.44 1.48 1.68 1.62 1.57
1.81 2.11 2.14 2.07 1.83 1.55 1.44 1.45 1.41 1.28 1.28 1.31 1.27 1.22 1.28 1.45 1.73 2.05 2.29 2.48 2.46 2.30 2.21 2.15 2.12 2.17 2.24 1.99 1.74 1.63 1.59 1.54 1.47 1.46 1.50 1.54 1.55 1.60
1.81 2.08 2.24 2.22 2.07 1.86 1.76 1.68 1.49 1.43 1.49 1.46 1.48 1.52 1.63 1.77 1.91 2.04 2.26 2.43 2.51 2.36 2.27 2.22 2.22 2.33 2.28 2.12 2.01 1.85 1.72 1.65 1.62 1.68 1.72 1.71 1.67 1.61
2.03 2.20 2.33 2.41 2.41 2.34 2.24 2.15 2.03 1.88 1.71 1.66 1.72 1.72 1.78 1.88 1.93 2.07 2.30 2.40 2.34 2.12 2.12 2.21 2.30 2.39 2.40 2.35 2.15 1.83 1.74 1.64 1.62 1.75 1.81 1.75 1.65 1.59
1.99 2.06 2.29 2.48 2.56 2.63 2.66 2.54 2.32 2.13 1.96 1.93 1.88 1.86 1.89 1.90 1.95 2.10 2.30 2.40 2.28 2.10 2.05 2.11 2.33 2.49 2.49 2.34 2.07 1.84 1.69 1.59 1.52 1.62 1.67 1.64 1.50 1.37
1.83 1.94 2.06 2.16 2.36 2.57 2.64 2.60 2.38 2.25 2.27 2.22 2.13 2.09 2.11 2.12 2.13 2.23 2.41 2.52 2.48 2.34 2.26 2.28 2.38 2.43 2.28 1.93 1.68 1.61 1.60 1.53 1.55 1.55 1.52 1.49 1.42 1.36
1.56 1.75 1.94 2.08 2.22 2.46 2.59 2.63 2.56 2.49 2.50 2.53 2.49 2.41 2.39 2.33 2.23 2.18 2.32 2.44 2.49 2.48 2.42 2.34 2.25 2.26 2.22 2.04 1.86 1.65 1.56 1.63 1.64 1.62 1.55 1.52 1.50 1.57
1.47 1.51 1.59 1.79 2.00 2.23 2.47 2.62 2.63 2.53 2.48 2.53 2.50 2.43 2.41 2.40 2.27 2.16 2.22 2.41 2.49 2.43 2.28 2.08 2.01 2.24 2.44 2.57 2.32 1.85 1.64 1.66 1.74 1.77 1.76 1.82 1.72 1.63
1.53 1.54 1.63 1.81 1.99 2.21 2.40 2.50 2.54 2.54 2.50 2.47 2.41 2.34 2.33 2.32 2.18 2.12 2.15 2.24 2.28 2.28 2.24 2.24 2.43 2.60 2.62 2.59 2.25 1.91 1.79 1.80 1.89 1.99 1.92 1.81 1.71 1.58
1.64 1.64 1.68 1.76 1.93 2.13 2.29 2.40 2.44 2.47 2.49 2.49 2.45 2.36 2.31 2.32 2.27 2.23 2.21 2.23 2.25 2.25 2.40 2.49 2.53 2.62 2.56 2.49 2.41 2.26 2.10 2.03 2.03 1.97 1.77 1.64 1.56 1.47